WetterOnline ( http://www.wetteronline.at )

Wetter aktuell Kiel

Aktuelles Wetter: Kiel/Holtenau (27m)

6-stündlich | Neueste Meldungen
Ortszeit Temperatur Wetter
Sa, 22.09. 14:00 14.2° C bewölkt
Sa, 22.09. 8:00 9.4° C fast wolkenlos
Sa, 22.09. 2:00 9.1° C wolkig
Fr, 21.09. 20:00 9.5° C wolkenlos
Fr, 21.09. 14:00 14.3° C leichter Regen
Sa, 15.09. 8:00 11.7° C leicht bewölkt
Sa, 15.09. 2:00 13.8° C wolkig
Fr, 14.09. 20:00 15.3° C bedeckt
Ortszeit Temperatur Wetter
Sa, 22.09. 19:00 12.7° C wolkenlos
Sa, 22.09. 18:50 12.7° C wolkenlos
Sa, 22.09. 18:40 13.0° C wolkenlos
Sa, 22.09. 18:30 13.3° C fast wolkenlos
Sa, 22.09. 18:20 13.3° C fast wolkenlos
Sa, 22.09. 18:10 13.5° C leicht bewölkt
Sa, 22.09. 18:00 13.4° C wolkig
Sa, 22.09. 17:30 13.4° C fast wolkenlos
Sa, 22.09. 17:00 12.8° C leicht bewölkt
Sa, 22.09. 16:30 12.8° C fast wolkenlos
Sa, 22.09. 16:00 13.4° C wolkig
Ortszeit Relative Feuchte Sichtweite
Sa, 22.09. 14:00 59% 26 km
Sa, 22.09. 8:00 96% 15 km
Sa, 22.09. 2:00 91% 30 km
Fr, 21.09. 20:00 83% 50 km
Fr, 21.09. 14:00 87% 16 km
Sa, 15.09. 8:00 95% 7 km
Sa, 15.09. 2:00 75% 27 km
Fr, 14.09. 20:00 63% 35 km
Ortszeit Relative Feuchte Sichtweite
Sa, 22.09. 19:00 61% 30 km
Sa, 22.09. 18:50 61% -
Sa, 22.09. 18:40 62% -
Sa, 22.09. 18:30 62% 27 km
Sa, 22.09. 18:20 62% -
Sa, 22.09. 18:10 61% -
Sa, 22.09. 18:00 61% 35 km
Sa, 22.09. 17:30 69% 21 km
Sa, 22.09. 17:00 74% 22 km
Sa, 22.09. 16:30 74% 45 km
Sa, 22.09. 16:00 70% 28 km
Ortszeit Niederschlagsmenge Niederschlagsart
Sa, 22.09. 14:00 0.9 l/m2 in 6 Std. Regen
Sa, 22.09. 8:00 6 l/m2 in 12 Std. Regen
Sa, 22.09. 2:00 3 l/m2 in 6 Std. Regen
Fr, 21.09. 20:00 1 l/m2 in 3 Std. Regen
Fr, 21.09. 14:00 0.0 l/m2 -
Sa, 15.09. 8:00 2 l/m2 in 12 Std. Regen
Sa, 15.09. 2:00 0.1 l/m2 in 6 Std. Regen
Fr, 14.09. 20:00 0.0 l/m2 in 12 Std. -
Ortszeit Niederschlagsmenge Niederschlagsart
Sa, 22.09. 19:00 0.0 l/m2 in 1 Std. -
Sa, 22.09. 18:50 keine Meldung -
Sa, 22.09. 18:40 keine Meldung -
Sa, 22.09. 18:30 0.0 l/m2 in 1 Std. -
Sa, 22.09. 18:20 keine Meldung -
Sa, 22.09. 18:10 keine Meldung -
Sa, 22.09. 18:00 0.0 l/m2 in 1 Std. -
Sa, 22.09. 17:30 0.0 l/m2 in 1 Std. -
Sa, 22.09. 17:00 0.0 l/m2 in 1 Std. Regen
Sa, 22.09. 16:30 0.0 l/m2 in 1 Std. -
Sa, 22.09. 16:00 0.1 l/m2 in 1 Std. Regen
Ortszeit Stärke Spitze Richtung
km/h Bft. km/h Grad Sektor
Sa, 22.09. 14:00 25 4 58 260° W
Sa, 22.09. 8:00 11 2 40 220° SW
Sa, 22.09. 2:00 17 3 65 230° SW
Fr, 21.09. 20:00 13 3 69 240° SW
Fr, 21.09. 14:00 20 4 41 250° W
Sa, 15.09. 8:00 7 2 25 230° SW
Sa, 15.09. 2:00 7 2 19 220° SW
Fr, 14.09. 20:00 7 2 29 250° W
Ortszeit Stärke Spitze Richtung
km/h Bft. km/h Grad Sektor
Sa, 22.09. 19:00 19 3 37 260° W
Sa, 22.09. 18:50 19 3 - 260° W
Sa, 22.09. 18:40 17 3 - 250° W
Sa, 22.09. 18:30 20 4 33 260° W
Sa, 22.09. 18:20 20 4 - 260° W
Sa, 22.09. 18:10 18 3 - 260° W
Sa, 22.09. 18:00 22 4 36 270° W
Sa, 22.09. 17:30 15 3 26 260° W
Sa, 22.09. 17:00 14 3 43 240° SW
Sa, 22.09. 16:30 14 3 43 250° W
Sa, 22.09. 16:00 18 3 50 250° W
Ortszeit Untergrenze Bedeckung Gattung
total tief tief mittel hoch
Sa, 22.09. 14:00 540 m 7/8 7/8 - - -
Sa, 22.09. 8:00 1410 m 1/8 1/8 - - -
Sa, 22.09. 2:00 1470 m 6/8 2/8 - - -
Fr, 21.09. 20:00 - 0/8 0/8 - - -
Fr, 21.09. 14:00 780 m 7/8 7/8 - - -
Sa, 15.09. 8:00 270 m 2/8 1/8 - - -
Sa, 15.09. 2:00 1800 m 7/8 4/8 - - -
Fr, 14.09. 20:00 1500 m 8/8 8/8 - - -
Ortszeit Bedeckungsgrad in Achtel und Wolkenuntergrenze
Sa, 22.09. 19:00 keine Wolken
Sa, 22.09. 18:50 keine Wolken
Sa, 22.09. 18:40 keine Wolken
Sa, 22.09. 18:30 1(1800m)
Sa, 22.09. 18:20 1(1800m)
Sa, 22.09. 18:10 3(1500m)
Sa, 22.09. 18:00 5(1500m) 6(2100m)
Sa, 22.09. 17:30 2(1800m)
Sa, 22.09. 17:00 3(1800m)
Sa, 22.09. 16:30 1(1800m)
Sa, 22.09. 16:00 2(1170m) 3(1440m) 6(1800m)
Ortszeit Luftdruck NN (hPa) Tendenz (hPa in 3 Std.)
Sa, 22.09. 14:00 1013 0,0
Sa, 22.09. 8:00 1012 + 2,0
Sa, 22.09. 2:00 1008 + 1,5
Fr, 21.09. 20:00 1005 + 2,2
Fr, 21.09. 14:00 1001 keine Meldung
Sa, 15.09. 8:00 1017 + 1,0
Sa, 15.09. 2:00 1017 - 0,4
Fr, 14.09. 20:00 1018 - 0,4
Ortszeit Luftdruck NN (hPa) Tendenz (hPa in 3 Std.)
Sa, 22.09. 19:00 1013 - 0,6
Sa, 22.09. 18:50 1013 keine Meldung
Sa, 22.09. 18:40 1013 keine Meldung
Sa, 22.09. 18:30 1013 - 0,3
Sa, 22.09. 18:20 1013 keine Meldung
Sa, 22.09. 18:10 1013 keine Meldung
Sa, 22.09. 18:00 1013 - 0,4
Sa, 22.09. 17:30 1013 + 0,3
Sa, 22.09. 17:00 1013 + 0,2
Sa, 22.09. 16:30 1013 + 0,6
Sa, 22.09. 16:00 1013 + 0,7
Ortszeit Schneehöhe (cm)
Sa, 22.09. 14:00 -
Sa, 22.09. 8:00 -
Sa, 22.09. 2:00 -
Fr, 21.09. 20:00 -
Fr, 21.09. 14:00 -
Sa, 15.09. 8:00 -
Sa, 15.09. 2:00 -
Fr, 14.09. 20:00 -
Ortszeit Schneehöhe (cm)
Sa, 22.09. 19:00 -
Sa, 22.09. 18:50 -
Sa, 22.09. 18:40 -
Sa, 22.09. 18:30 -
Sa, 22.09. 18:20 -
Sa, 22.09. 18:10 -
Sa, 22.09. 18:00 -
Sa, 22.09. 17:30 -
Sa, 22.09. 17:00 -
Sa, 22.09. 16:30 -
Sa, 22.09. 16:00 -
Link zu dieser Seite / Seite empfehlen

Das Wetter in ...